This demonstration page uses our WeatherBlox Daily Observations layout. Learn more.

Left ArrowRight Arrow

Hourly Observations for November 27, 2022

Temp ( °F °C ) Dew Point ( °F °C ) Humidity (%) Winds ( mph kmh ) Pressure ( in mb ) Visibility ( mi km ) Precip ( " mm )
12:51 am 00:51 Clear 38 3.3 10 -12.2 31 31 Calm 29.99 1016 10 16 0.00 0.00
1:51 am 01:51 Clear 36 2.2 9 -12.8 32 32 E 6 9 29.98 1015 10 16 0.00 0.00
2:51 am 02:51 Clear 34 1.1 9 -12.8 34 34 ESE 7 11 29.98 1015 10 16 0.00 0.00
3:51 am 03:51 Clear 34 1.1 9 -12.8 34 34 SE 7 11 29.99 1016 10 16 0.00 0.00
4:51 am 04:51 Clear 32 0 9 -12.8 37 37 ESE 3 6 30.01 1016 10 16 0.00 0.00
5:51 am 05:51 Clear 31 -0.6 9 -12.8 39 39 E 6 9 30.04 1017 10 16 0.00 0.00
6:51 am 06:51 Clear 28 -2.2 9 -12.8 44 44 ESE 6 9 30.07 1018 10 16 0.00 0.00
7:51 am 07:51 Sunny 35 1.7 10 -12.2 35 35 ESE 5 7 30.10 1019 10 16 0.00 0.00
8:51 am 08:51 Sunny 40 4.4 11 -11.7 30 30 SSE 5 7 30.10 1019 10 16 0.00 0.00
9:51 am 09:51 Sunny 46 7.8 12 -11.1 25 25 S 3 6 30.09 1019 10 16 0.00 0.00
10:51 am 10:51 Sunny 51 10.6 14 -10 22 22 Calm 30.09 1019 10 16 0.00 0.00
11:51 am 11:51 Sunny 56 13.3 14 -10 19 19 VRB 5 7 30.06 1018 10 16 0.00 0.00
12:51 pm 12:51 Sunny 60 15.6 15 -9.4 17 17 WNW 8 13 30.02 1017 10 16 0.00 0.00
1:51 pm 13:51 Sunny 62 16.7 16 -8.9 16 16 WNW 6 9 29.99 1016 10 16 0.00 0.00
2:51 pm 14:51 Sunny 65 18.3 16 -8.9 15 15 WNW 12 19 29.98 1015 10 16 0.00 0.00
3:51 pm 15:51 Sunny 64 17.8 15 -9.4 15 15 WNW 12 19 29.98 1015 10 16 0.00 0.00
4:51 pm 16:51 Sunny 61 16.1 16 -8.9 17 17 WNW 9 15 29.98 1015 10 16 0.00 0.00
5:51 pm 17:51 Clear 52 11.1 14 -10 22 22 NW 6 9 30.01 1016 10 16 0.00 0.00
6:51 pm 18:51 Clear 46 7.8 13 -10.6 26 26 NW 3 6 30.04 1017 10 16 0.00 0.00
7:51 pm 19:51 Clear 49 9.4 14 -10 24 24 Calm 30.02 1017 10 16 0.00 0.00
8:51 pm 20:51 Clear 40 4.4 12 -11.1 31 31 NE 5 7 30.04 1017 10 16 0.00 0.00
9:51 pm 21:51 Clear 36 2.2 11 -11.7 35 35 NNE 3 6 30.04 1017 10 16 0.00 0.00
10:51 pm 22:51 Clear 35 1.7 11 -11.7 36 36 Calm 30.04 1017 10 16 0.00 0.00
11:51 pm 23:51 Clear 33 0.6 11 -11.7 39 39 SE 3 6 30.03 1017 10 16 0.00 0.00

Powered by AerisWeather